sat.trackr.live / text

‹ back to catalog

STARLINK-32148

NORAD 60263 · 2024-131J

PAYLOAD ACTIVE UNKNOWN

§ Identity

Operator
Country
US
Launch date
2024-07-27
Launch site
AFETR
Launch vehicle
Mass (kg)
RCS (m²)

Purposes: comms

External: N2YO · Heavens-Above · Gunter

§ Orbital elements

Epoch: 2026-09-21T06:51:13.608288Z

Period
94.01 min
Inclination
53.1586°
Eccentricity
0.0001629
Mean motion
15.31697465 rev/d
Perigee alt
469.6 km
Apogee alt
471.9 km
Semi-major
6,848.9 km
B*
-2.0569e-5
RAAN
222.5998°
Arg perigee
87.6808°
Mean anomaly
272.4380°
Rev number
12,173

§ Raw data

STARLINK-321481 60263U 24131J   26264.28557417 -.00001004  00000+0 -20569-4 0  99992 60263  53.1586 222.5998 0001629  87.6808 272.4380 15.31697465121736

JSON: /api/v1/satellites/60263 · /tle

For live sub-satellite position, see the globe view (requires WebGL).

§ Visibility from observer

Set your observer location to see the next 7 days of passes ≥ 10°. The values pass through the URL so the page stays shareable.

No JS? Fill the form by hand. The geolocation button needs JavaScript.